Tracking 25693 objects as of 30-Jun-2022
HD Live streaming from Space Station
objects crossing your sky now

STARLINK-2280

Track STARLINK-2280 now!
10-day predictions
STARLINK-2280 is classified as:


NORAD ID: 47861
Int'l Code: 2021-021B
Perigee: 553.4 km
Apogee: 555.4 km
Inclination: 53.1 °
Period: 95.6 minutes
Semi major axis: 6925 km
RCS: Unknown
Launch date: March 14, 2021
Source: United States (US)
Launch site: AIR FORCE EASTERN TEST RANGE (AFETR)
aabbcc
Your satellite tracking list
Your tracking list is empty




NASA's NSSDC Master Catalog

Two Line Element Set (TLE):
1 47861U 21021B   22181.43260224 -.00001101  00000-0 -55082-4 0  9998
2 47861  53.0525 199.1784 0001499  60.7011 299.4128 15.06381532 73059
Source of the keplerian elements: AFSPC